Regional Weather Roundup
Issued by NWS Cleveland, OH

Home | Current Version | Previous Version | Text Only | Print | Product List | Glossary Off
Versions: 1 2 3 4 5 6 7 8 9 10 11 12 13 14 15 16 17 18 19 20 21 22 23 24 25 26 27 28 29 30 31 32 33 34 35 36 37 38 39 40 41 42 43 44 45 46 47 48 49 50

000
ASUS41 KCLE 272100
RWRCLE
OHIO REGIONAL WEATHER ROUNDUP
NATIONAL WEATHER SERVICE WILMINGTON, OH
500 PM EDT TUE SEP 27 2016

NOTE: "FAIR" INDICATES FEW OR NO CLOUDS BELOW 12,000 FEET WITH NO
SIGNIFICANT WEATHER AND/OR OBSTRUCTIONS TO VISIBILITY.

OHZ001>008-015>018-024>027-034-035-043-044-272200-
   NORTHWEST OHIO

CITY           SKY/WX    TMP DP  RH WIND       PRES   REMARKS
DEFIANCE       FAIR      73  34  23 W13G21    29.76S
FINDLAY        FAIR      74  31  20 W18       29.76S
TOLEDO EXPRESS FAIR      70  33  25 SW16      29.75S
TOLEDO EXEC    FAIR      72  35  25 W16G25    29.76S
LIMA           FAIR      73  34  23 W18G28    29.78F
$$

OHZ009>014-019>023-028>033-038-089-272200-
   NORTHEAST OHIO

CITY           SKY/WX    TMP DP  RH WIND       PRES   REMARKS
CLE-HOPKINS    FAIR      74  38  27 SW13G24   29.78F
CLE-LAKEFRONT  FAIR      73  38  27 SW16G24   29.76F
CUY CO. ARPT   MOSUNNY   75  45  33 SW17G25   29.78F
LORAIN-ELYRIA  FAIR      73  33  23 W17       29.77F
ASHTABULA      PTSUNNY   70  42  36 SW12      29.80F
AKRON-CANTON   FAIR      71  41  33 SW15G22   29.82F
WOOSTER        NOT AVBL
MANSFIELD      FAIR      72  39  30 SW18G26   29.80F
YOUNGSTOWN     PTSUNNY   69  41  36 SW18G25   29.83S
$$

OHZ042-051>053-060>062-070>072-077>081-272200-
  SOUTHWEST OHIO

CITY           SKY/WX    TMP DP  RH WIND       PRES   REMARKS
CINC-COVINGTON FAIR      74  44  34 W10G20    29.86F
CINC-LUNKEN    FAIR      74  45  35 W13       29.86F
HAMILTON       FAIR      75  44  33 SW10G22   29.85F
DAYTON         NOT AVBL
WRIGHT-PAT AFB NOT AVBL
DAYTON GENERAL FAIR      73  43  33 SW17G24   29.84F
WILMINGTON     FAIR      72  44  36 SW20G28   29.85F
$$

OHZ036-037-039>041-045>050-054>059-063>069-073>076-082>088-272200-
  CENTRAL AND SOUTHEAST OHIO

CITY           SKY/WX    TMP DP  RH WIND       PRES   REMARKS
COLUMBUS       FAIR      73  43  33 W17G23    29.83F
OSU AIRPORT    FAIR      72  43  35 SW16G22   29.82F
BOLTON FIELD   SUNNY     72  45  37 SW14G26   29.84F
RICKENBACK AFB NOT AVBL
NEWARK         FAIR      74  37  26 SW14      29.84S
MARION         FAIR      75  37  25 SW15G23   29.79F
LANCASTER      FAIR      73  38  27 W16G24    29.85F
ZANESVILLE     FAIR      74  37  26 SW12G22   29.85F
NEW PHILLY     FAIR      74  37  26 SW10G20   29.84F
$$




USA.gov is the U.S. government's official web portal to all federal, state and local government web resources and services.